Total_Precipitation_Accumulation
0.00 0.02 0.06 0.07 0.04 0.06 0.16 0.17 0.08 0.01 0.00 0.00 0.00 0.00 0.00 0.00 0.02 0.04 0.00 0.00 0.00 0.00 0.00 0.01 0.00 0.01 0.01 0.01 0.00 0.00 0.00 0.00 0.00 0.01 0.01 0.01 0.01 0.00 0.00 0.00 0.00 0.00 0.00 0.00 0.00 0.00 0.00 0.00 0.00
0.00 0.02 0.04 0.03 0.04 0.12 0.29 0.61 0.12 0.03 0.01 0.00 0.00 0.00 0.00 0.00 0.00 0.00 0.00 0.00 0.00 0.00 0.00 0.00 0.00 0.01 0.01 0.01 0.01 0.01 0.01 0.00 0.01 0.05 0.05 0.04 0.01 0.01 0.00 0.00 0.00 0.00 0.00 0.00 0.00 0.00 0.00 0.00 0.00
0.00 0.01 0.03 0.02 0.05 0.16 0.15 0.30 0.09 0.03 0.01 0.00 0.00 0.00 0.00 0.00 0.00 0.00 0.00 0.00 0.00 0.00 0.00 0.00 0.00 0.01 0.00 0.01 0.01 0.03 0.01 0.00 0.02 0.08 0.09 0.07 0.02 0.02 0.02 0.01 0.00 0.00 0.01 0.00 0.00 0.01 0.00 0.00 0.01
0.00 0.00 0.01 0.01 0.05 0.15 0.18 0.12 0.05 0.02 0.01 0.00 0.00 0.00 0.00 0.00 0.00 0.00 0.00 0.00 0.00 0.00 0.00 0.00 0.00 0.01 0.00 0.00 0.01 0.04 0.06 0.03 0.05 0.08 0.08 0.07 0.05 0.08 0.06 0.02 0.01 0.01 0.02 0.01 0.00 0.00 0.00 0.00 0.01
0.00 0.00 0.00 0.01 0.07 0.17 0.20 0.11 0.06 0.02 0.01 0.00 0.00 0.00 0.00 0.00 0.00 0.00 0.00 0.00 0.00 0.00 0.00 0.00 0.00 0.00 0.00 0.00 0.00 0.01 0.04 0.05 0.07 0.07 0.06 0.04 0.03 0.03 0.03 0.02 0.01 0.01 0.01 0.01 0.01 0.01 0.01 0.01 0.01
0.00 0.00 0.00 0.02 0.06 0.13 0.13 0.09 0.07 0.03 0.01 0.01 0.00 0.00 0.00 0.00 0.00 0.00 0.00 0.00 0.00 0.00 0.00 0.00 0.01 0.00 0.00 0.00 0.00 0.00 0.00 0.01 0.01 0.02 0.02 0.01 0.01 0.02 0.03 0.03 0.02 0.01 0.01 0.02 0.01 0.01 0.02 0.03 0.02
0.00 0.00 0.00 0.01 0.03 0.08 0.10 0.07 0.05 0.03 0.02 0.01 0.00 0.00 0.00 0.00 0.00 0.00 0.00 0.00 0.00 0.00 0.00 0.00 0.00 0.00 0.00 0.00 0.00 0.00 0.00 0.00 0.00 0.01 0.01 0.01 0.01 0.02 0.03 0.05 0.05 0.04 0.04 0.05 0.04 0.02 0.02 0.02 0.03
0.00 0.00 0.00 0.00 0.01 0.05 0.05 0.06 0.03 0.02 0.02 0.01 0.00 0.00 0.00 0.00 0.00 0.00 0.00 0.00 0.00 0.00 0.00 0.00 0.01 0.00 0.00 0.00 0.00 0.00 0.00 0.00 0.00 0.01 0.01 0.01 0.01 0.01 0.04 0.06 0.06 0.08 0.10 0.10 0.06 0.03 0.03 0.02 0.02
0.00 0.00 0.00 0.00 0.00 0.00 0.01 0.02 0.02 0.01 0.01 0.00 0.00 0.00 0.00 0.00 0.00 0.00 0.00 0.00 0.00 0.00 0.00 0.00 0.01 0.01 0.00 0.00 0.00 0.00 0.01 0.01 0.01 0.01 0.01 0.01 0.01 0.02 0.06 0.06 0.08 0.10 0.09 0.08 0.06 0.04 0.04 0.04 0.02
0.00 0.00 0.00 0.00 0.00 0.00 0.00 0.00 0.00 0.00 0.00 0.00 0.00 0.01 0.00 0.00 0.00 0.00 0.00 0.00 0.00 0.00 0.00 0.01 0.01 0.01 0.00 0.00 0.00 0.01 0.01 0.01 0.01 0.03 0.05 0.06 0.11 0.10 0.04 0.04 0.10 0.15 0.16 0.14 0.14 0.14 0.11 0.12 0.13
0.00 0.00 0.00 0.00 0.00 0.00 0.00 0.00 0.00 0.01 0.01 0.01 0.03 0.10 0.06 0.00 0.00 0.00 0.00 0.00 0.00 0.00 0.00 0.00 0.01 0.01 0.01 0.00 0.00 0.01 0.01 0.03 0.02 0.02 0.06 0.11 0.11 0.05 0.01 0.02 0.05 0.10 0.16 0.15 0.24 0.31 0.25 0.30 0.38
0.00 0.00 0.00 0.00 0.00 0.00 0.00 0.00 0.00 0.01 0.03 0.03 0.03 0.05 0.04 0.01 0.00 0.00 0.00 0.00 0.00 0.00 0.00 0.01 0.00 0.01 0.01 0.01 0.01 0.00 0.00 0.01 0.01 0.03 0.02 0.05 0.06 0.03 0.01 0.02 0.03 0.07 0.10 0.18 0.24 0.34 0.34 0.32 0.29
0.00 0.00 0.00 0.00 0.00 0.00 0.00 0.00 0.01 0.02 0.04 0.05 0.05 0.04 0.01 0.01 0.01 0.01 0.00 0.00 0.00 0.01 0.01 0.02 0.02 0.02 0.03 0.03 0.02 0.01 0.01 0.01 0.01 0.02 0.02 0.03 0.04 0.04 0.04 0.03 0.04 0.05 0.10 0.13 0.22 0.28 0.41 0.46 0.36
0.00 0.00 0.00 0.00 0.00 0.00 0.00 0.00 0.00 0.01 0.05 0.08 0.05 0.03 0.02 0.01 0.01 0.01 0.01 0.01 0.01 0.02 0.03 0.05 0.07 0.10 0.10 0.09 0.06 0.05 0.04 0.04 0.04 0.05 0.07 0.07 0.08 0.10 0.13 0.12 0.14 0.15 0.19 0.24 0.35 0.48 0.62 0.61 0.60
0.00 0.00 0.00 0.00 0.00 0.00 0.00 0.00 0.00 0.01 0.05 0.07 0.10 0.14 0.11 0.04 0.02 0.02 0.03 0.02 0.02 0.04 0.07 0.11 0.17 0.22 0.21 0.18 0.15 0.15 0.15 0.15 0.14 0.15 0.18 0.20 0.21 0.23 0.26 0.23 0.25 0.36 0.47 0.51 0.55 0.69 0.79 0.70 0.74
0.00 0.00 0.00 0.00 0.00 0.00 0.00 0.00 0.00 0.00 0.02 0.06 0.07 0.10 0.13 0.09 0.06 0.05 0.04 0.04 0.06 0.08 0.11 0.22 0.32 0.35 0.32 0.32 0.34 0.31 0.29 0.27 0.24 0.26 0.28 0.32 0.38 0.44 0.53 0.45 0.46 0.77 0.83 0.82 0.93 1.06 1.01 0.93 0.90
0.00 0.00 0.00 0.00 0.00 0.00 0.00 0.00 0.00 0.01 0.04 0.07 0.04 0.04 0.09 0.13 0.15 0.16 0.15 0.12 0.11 0.15 0.22 0.37 0.46 0.45 0.45 0.47 0.48 0.43 0.36 0.31 0.31 0.34 0.36 0.44 0.54 0.64 0.80 0.73 0.86 1.14 1.16 1.11 1.12 1.26 1.22 1.05 0.98
0.00 0.00 0.00 0.00 0.00 0.00 0.00 0.00 0.00 0.01 0.02 0.03 0.04 0.08 0.16 0.18 0.28 0.31 0.25 0.20 0.19 0.26 0.34 0.42 0.54 0.60 0.67 0.73 0.63 0.47 0.36 0.33 0.36 0.40 0.41 0.51 0.62 0.81 1.08 0.98 1.05 1.27 1.35 1.30 1.28 1.22 1.24 1.07 1.04
0.00 0.00 0.00 0.00 0.00 0.00 0.00 0.00 0.00 0.00 0.01 0.02 0.02 0.08 0.12 0.12 0.16 0.19 0.20 0.23 0.29 0.28 0.32 0.44 0.58 0.66 0.67 0.68 0.62 0.59 0.54 0.56 0.51 0.53 0.55 0.58 0.63 0.82 1.12 1.10 1.20 1.30 1.26 1.23 1.32 1.29 1.16 0.93 1.06
0.00 0.00 0.00 0.00 0.00 0.00 0.00 0.00 0.00 0.01 0.02 0.03 0.05 0.07 0.09 0.12 0.14 0.18 0.22 0.27 0.31 0.33 0.37 0.42 0.57 0.71 0.71 0.77 0.84 0.92 1.01 0.85 0.72 0.78 0.84 0.88 0.97 1.01 1.10 1.15 1.17 1.23 1.25 1.15 1.10 1.17 1.06 0.85 0.97
0.00 0.00 0.00 0.00 0.00 0.00 0.00 0.00 0.00 0.01 0.04 0.08 0.11 0.17 0.25 0.29 0.28 0.24 0.22 0.25 0.29 0.34 0.38 0.44 0.56 0.69 0.74 0.89 1.08 1.20 1.30 1.17 1.19 1.30 1.36 1.35 1.38 1.35 1.33 1.25 1.14 1.02 1.01 0.91 0.92 1.02 1.01 0.90 0.87
0.00 0.00 0.00 0.00 0.00 0.00 0.00 0.00 0.00 0.01 0.04 0.08 0.12 0.20 0.35 0.44 0.39 0.36 0.33 0.34 0.37 0.41 0.50 0.63 0.73 0.82 0.95 1.09 1.27 1.38 1.42 1.45 1.60 1.81 1.72 1.49 1.34 1.19 1.05 0.94 0.91 0.84 0.84 0.74 0.72 0.79 0.79 0.76 0.74
0.00 0.00 0.00 0.00 0.00 0.00 0.00 0.00 0.00 0.01 0.02 0.06 0.17 0.29 0.42 0.49 0.47 0.49 0.50 0.51 0.52 0.56 0.64 0.78 0.89 0.97 1.04 1.11 1.20 1.31 1.37 1.41 1.42 1.40 1.29 1.14 0.99 0.85 0.73 0.66 0.65 0.61 0.61 0.56 0.54 0.54 0.53 0.56 0.59
0.00 0.00 0.00 0.00 0.00 0.00 0.01 0.01 0.01 0.02 0.02 0.05 0.18 0.32 0.43 0.49 0.52 0.56 0.57 0.58 0.60 0.62 0.63 0.65 0.68 0.75 0.82 0.86 0.91 0.96 0.96 0.95 0.90 0.82 0.75 0.69 0.62 0.50 0.40 0.37 0.40 0.46 0.51 0.47 0.44 0.43 0.44 0.48 0.55
0.00 0.00 0.00 0.00 0.00 0.01 0.01 0.02 0.04 0.04 0.04 0.08 0.19 0.28 0.33 0.36 0.40 0.47 0.50 0.54 0.56 0.57 0.57 0.55 0.54 0.54 0.52 0.50 0.51 0.55 0.56 0.56 0.54 0.55 0.53 0.50 0.45 0.37 0.31 0.27 0.29 0.36 0.43 0.40 0.36 0.37 0.44 0.51 0.56
0.00 0.01 0.03 0.05 0.02 0.00 0.00 0.01 0.09 0.08 0.13 0.20 0.27 0.31 0.32 0.32 0.34 0.42 0.49 0.53 0.53 0.50 0.50 0.49 0.49 0.48 0.41 0.37 0.37 0.39 0.42 0.43 0.40 0.38 0.35 0.34 0.35 0.35 0.34 0.30 0.31 0.32 0.36 0.35 0.35 0.34 0.40 0.47 0.51
0.01 0.00 0.01 0.08 0.06 0.01 0.00 0.01 0.06 0.05 0.10 0.25 0.33 0.35 0.39 0.40 0.36 0.36 0.37 0.39 0.40 0.37 0.37 0.41 0.49 0.50 0.48 0.47 0.43 0.37 0.36 0.34 0.29 0.26 0.25 0.25 0.26 0.30 0.34 0.33 0.34 0.38 0.43 0.46 0.50 0.51 0.56 0.66 0.70
0.01 0.01 0.04 0.06 0.04 0.01 0.00 0.00 0.03 0.05 0.04 0.10 0.13 0.12 0.16 0.20 0.20 0.18 0.18 0.18 0.18 0.22 0.29 0.37 0.41 0.41 0.42 0.43 0.44 0.42 0.38 0.31 0.24 0.20 0.20 0.20 0.22 0.25 0.31 0.38 0.39 0.41 0.41 0.44 0.54 0.72 0.85 0.90 0.91
0.01 0.01 0.02 0.02 0.02 0.02 0.02 0.01 0.02 0.02 0.03 0.04 0.05 0.06 0.09 0.10 0.12 0.16 0.16 0.19 0.20 0.24 0.31 0.39 0.41 0.41 0.43 0.42 0.42 0.41 0.39 0.36 0.29 0.23 0.20 0.20 0.22 0.25 0.28 0.34 0.38 0.41 0.42 0.44 0.49 0.62 0.78 0.86 0.86
0.01 0.01 0.01 0.01 0.01 0.02 0.02 0.01 0.01 0.02 0.03 0.06 0.11 0.12 0.14 0.15 0.15 0.17 0.17 0.23 0.27 0.27 0.28 0.34 0.37 0.42 0.51 0.60 0.68 0.69 0.61 0.51 0.41 0.31 0.25 0.23 0.24 0.26 0.26 0.26 0.29 0.32 0.36 0.41 0.49 0.60 0.67 0.71 0.70